Regional Weather Roundup
Issued by NWS

Home | Current Version | Previous Version | Graphics & Text | Print | Product List | Glossary On
Versions: 1 2 3 4 5 6 7 8 9 10 11 12 13 14 15 16 17 18 19 20 21 22 23 24 25 26 27 28 29 30 31 32 33 34 35 36 37 38 39 40 41 42 43 44 45 46 47 48 49 50
000
ASUS43 KFSD 231910
RWRSD

WEATHER ROUNDUP FOR SOUTH DAKOTA
NATIONAL WEATHER SERVICE SIOUX FALLS SD
200 PM CDT THU OCT 23 2014

NOTE: "FAIR" INDICATES FEW OR NO CLOUDS BELOW 12,000 FEET WITH NO
SIGNIFICANT WEATHER AND/OR OBSTRUCTIONS TO VISIBILITY.


SDZ001>005-009-010-012>017-232000-
NORTHWEST AND NORTH CENTRAL SOUTH DAKOTA

CITY           SKY/WX    TMP DP  RH WIND       PRES   REMARKS
BUFFALO          N/A     68  26  20 SW12      29.84F
FAITH            N/A     66  29  24 S10       29.90F
MOBRIDGE       SUNNY     68  39  34 S10       29.88F
$$

SDZ012>016-024>037-041>051-057-063-072>074-232000-
SOUTHWEST AND SOUTH CENTRAL SOUTH DAKOTA

CITY           SKY/WX    TMP DP  RH WIND       PRES   REMARKS
RAPID CTY ARPT PTSUNNY   64  35  34 SE6       29.91F
PIERRE         SUNNY     65  37  35 VRB5      29.92F
CUSTER         PTSUNNY   57  22  25 W12G21    30.00F
ELLSWORTH AFB  PTSUNNY   66  30  25 S8        29.91F
PHILIP         PTSUNNY   68  29  23 SW8       29.91F
PINE RIDGE     PTSUNNY   68  34  28 SW13      29.97F
SPEARFISH      FAIR      63  30  29 CALM      29.94F
WINNER         FAIR      73  26  17 VRB6      29.94F
$$

SDZ004>011-016>023-039-040-232000-
NORTHEAST SOUTH DAKOTA

CITY           SKY/WX    TMP DP  RH WIND       PRES   REMARKS
ABERDEEN       SUNNY     65  46  50 S9        29.92F
WATERTOWN      SUNNY     67  45  45 SW13      29.95F
SISSETON         N/A     72  36  26 SW12      29.90F
$$

SDZ017-020-022-023-036>040-048>070-232000-
SOUTHEAST SOUTH DAKOTA

CITY           SKY/WX    TMP DP  RH WIND       PRES   REMARKS
SIOUX FALLS    MOSUNNY   66  45  46 SW9       30.00F
HURON          SUNNY     70  50  49 S12       29.93F
CHAMBERLAIN    SUNNY     66  43  42 S7        29.95F
MITCHELL       SUNNY     71  46  40 S13       29.96F
YANKTON        SUNNY     70  46  43 S13G18    29.99F
$$

ABBREVIATIONS USED IN REMARKS
   TC - TEMPERATURE IN CELSIUS
  WCI - WIND CHILL INDEX
   HX - HEAT INDEX
  VSB - VISIBILITY




USA.gov is the U.S. government's official web portal to all federal, state and local government web resources and services.